When you browse on this site, cookies collect data to enhance your experience and personalize the content and advertising you see.
Visit our Privacy Policy to learn more. By continuing to use the site, you agree to this use of cookies and data.
  • In United Kingdom
  • List of Countries
  • For 7 days
  • Water Temperature
  • Satellite Maps
  • Weather Map
  • Weather Widgets
  • user-avatar
    Login

    Hourly Weather Parakou

    Today, 18 June, Tuesday

    Time Temperature Precipitation Wind Pressure Humidity
    00:00 +26°C° 0.3 mm 2 mps 729 mmHg 90%
    01:00 +25°C° 0 mm 2 mps 729 mmHg 90%
    02:00 +25°C° 0 mm 3 mps 729 mmHg 91%
    03:00 +25°C° 0 mm 3 mps 728 mmHg 91%
    04:00 +25°C° 0 mm 3 mps 728 mmHg 91%
    05:00 +25°C° 0 mm 3 mps 729 mmHg 91%
    06:00 +25°C° 0 mm 3 mps 729 mmHg 90%
    07:00 +26°C° 0 mm 3 mps 729 mmHg 86%
    08:00 +27°C° 0 mm 3 mps 730 mmHg 83%
    09:00 +27°C° 0 mm 3 mps 730 mmHg 79%
    10:00 +29°C° 0 mm 3 mps 730 mmHg 72%
    11:00 +32°C° 0 mm 4 mps 730 mmHg 65%
    12:00 +34°C° 0 mm 4 mps 729 mmHg 59%
    13:00 +34°C° 0 mm 4 mps 729 mmHg 57%
    14:00 +34°C° 0 mm 3 mps 728 mmHg 55%
    15:00 +35°C° 0 mm 3 mps 727 mmHg 53%
    16:00 +33°C° 0 mm 3 mps 728 mmHg 59%
    17:00 +31°C° 0 mm 2 mps 728 mmHg 65%
    18:00 +30°C° 0 mm 2 mps 728 mmHg 71%
    19:00 +29°C° 0 mm 2 mps 728 mmHg 74%
    20:00 +28°C° 0 mm 2 mps 729 mmHg 78%
    21:00 +27°C° 0 mm 2 mps 730 mmHg 81%
    22:00 +27°C° 0 mm 2 mps 730 mmHg 82%
    23:00 +26°C° 0 mm 2 mps 729 mmHg 84%

    Tomorrow, 19 June, Wednesday

    Time Temperature Precipitation Wind Pressure Humidity
    00:00 +26°C° 0 mm 2 mps 729 mmHg 85%
    01:00 +26°C° 0 mm 2 mps 729 mmHg 87%
    02:00 +25°C° 0 mm 2 mps 729 mmHg 89%
    03:00 +25°C° 0 mm 2 mps 729 mmHg 91%
    04:00 +25°C° 0 mm 2 mps 729 mmHg 92%
    05:00 +24°C° 0 mm 2 mps 729 mmHg 93%
    06:00 +24°C° 0 mm 2 mps 729 mmHg 93%
    07:00 +26°C° 0 mm 2 mps 729 mmHg 85%
    08:00 +28°C° 0 mm 2 mps 729 mmHg 76%
    09:00 +30°C° 0 mm 3 mps 730 mmHg 67%
    10:00 +33°C° 0 mm 3 mps 729 mmHg 60%
    11:00 +34°C° 0 mm 3 mps 729 mmHg 53%
    12:00 +36°C° 0 mm 3 mps 729 mmHg 46%
    13:00 +37°C° 0 mm 2 mps 728 mmHg 44%
    14:00 +37°C° 0 mm 2 mps 728 mmHg 42%
    15:00 +38°C° 0 mm 2 mps 727 mmHg 40%
    16:00 +36°C° 0 mm 2 mps 727 mmHg 48%
    17:00 +34°C° 0 mm 2 mps 727 mmHg 55%
    18:00 +31°C° 0 mm 2 mps 727 mmHg 62%
    19:00 +31°C° 0 mm 2 mps 728 mmHg 64%
    20:00 +30°C° 0 mm 3 mps 728 mmHg 66%
    21:00 +29°C° 0 mm 3 mps 729 mmHg 68%
    22:00 +28°C° 0.4 mm 2 mps 729 mmHg 74%
    23:00 +27°C° 0.4 mm 2 mps 729 mmHg 81%

    Day after tomorrow, 20 June, Thursday

    Time Temperature Precipitation Wind Pressure Humidity
    00:00 +26°C° 0.4 mm 2 mps 729 mmHg 87%
    01:00 +25°C° 0.2 mm 2 mps 728 mmHg 90%
    02:00 +25°C° 0.2 mm 2 mps 728 mmHg 92%
    03:00 +24°C° 0.2 mm 2 mps 728 mmHg 95%
    04:00 +24°C° 0 mm 3 mps 728 mmHg 95%
    05:00 +24°C° 0 mm 3 mps 728 mmHg 95%
    06:00 +23°C° 0 mm 4 mps 728 mmHg 95%
    07:00 +25°C° 0 mm 4 mps 729 mmHg 92%
    08:00 +26°C° 0 mm 4 mps 729 mmHg 88%
    09:00 +26°C° 0 mm 4 mps 730 mmHg 85%
    10:00 +27°C° 0 mm 4 mps 729 mmHg 81%
    11:00 +28°C° 0 mm 3 mps 729 mmHg 78%
    12:00 +29°C° 0 mm 3 mps 729 mmHg 74%
    13:00 +30°C° 0 mm 3 mps 729 mmHg 70%
    14:00 +31°C° 0 mm 3 mps 728 mmHg 65%
    15:00 +33°C° 0 mm 3 mps 727 mmHg 60%
    16:00 +31°C° 0 mm 2 mps 728 mmHg 64%
    17:00 +30°C° 0 mm 2 mps 728 mmHg 68%
    18:00 +30°C° 0 mm 1 mps 728 mmHg 72%
    19:00 +29°C° 0 mm 1 mps 728 mmHg 75%
    20:00 +28°C° 0 mm 2 mps 729 mmHg 77%
    21:00 +27°C° 0 mm 2 mps 730 mmHg 80%
    22:00 +27°C° 0 mm 2 mps 730 mmHg 83%
    23:00 +26°C° 0 mm 3 mps 729 mmHg 86%

    21 June, Friday

    Time Temperature Precipitation Wind Pressure Humidity
    00:00 +26°C° 0 mm 3 mps 729 mmHg 89%
    01:00 +26°C° 0.1 mm 3 mps 729 mmHg 90%
    02:00 +26°C° 0.1 mm 3 mps 729 mmHg 90%
    03:00 +25°C° 0.1 mm 3 mps 729 mmHg 91%
    04:00 +25°C° 0.3 mm 3 mps 729 mmHg 91%
    05:00 +25°C° 0.3 mm 3 mps 729 mmHg 92%
    06:00 +25°C° 0.3 mm 3 mps 730 mmHg 92%
    07:00 +25°C° 0.2 mm 3 mps 730 mmHg 91%
    08:00 +25°C° 0.2 mm 3 mps 730 mmHg 91%
    09:00 +25°C° 0.2 mm 3 mps 731 mmHg 90%
    10:00 +27°C° 0 mm 3 mps 730 mmHg 84%
    11:00 +28°C° 0 mm 3 mps 730 mmHg 78%
    12:00 +29°C° 0 mm 3 mps 730 mmHg 73%
    13:00 +30°C° 0 mm 3 mps 729 mmHg 70%
    14:00 +30°C° 0 mm 3 mps 728 mmHg 68%
    15:00 +31°C° 0 mm 2 mps 727 mmHg 65%
    16:00 +30°C° 0 mm 2 mps 728 mmHg 69%
    17:00 +29°C° 0 mm 2 mps 728 mmHg 72%
    18:00 +28°C° 0 mm 1 mps 728 mmHg 75%
    19:00 +28°C° 0 mm 1 mps 728 mmHg 78%
    20:00 +27°C° 0 mm 1 mps 729 mmHg 81%
    21:00 +26°C° 0 mm 2 mps 729 mmHg 84%
    22:00 +26°C° 0 mm 2 mps 729 mmHg 86%
    23:00 +26°C° 0 mm 2 mps 729 mmHg 87%

    22 June, Saturday

    Time Temperature Precipitation Wind Pressure Humidity
    00:00 +26°C° 0 mm 2 mps 729 mmHg 88%
    01:00 +25°C° 0 mm 2 mps 729 mmHg 90%
    02:00 +25°C° 0 mm 2 mps 728 mmHg 91%
    03:00 +25°C° 0 mm 2 mps 728 mmHg 93%
    04:00 +25°C° 0 mm 3 mps 728 mmHg 93%
    05:00 +24°C° 0 mm 3 mps 728 mmHg 94%
    06:00 +24°C° 0 mm 3 mps 729 mmHg 95%
    07:00 +24°C° 1.6 mm 3 mps 729 mmHg 93%
    08:00 +24°C° 1.6 mm 3 mps 730 mmHg 92%
    09:00 +23°C° 1.6 mm 4 mps 731 mmHg 91%
    10:00 +23°C° 1.3 mm 4 mps 730 mmHg 91%
    11:00 +23°C° 1.3 mm 4 mps 730 mmHg 91%
    12:00 +22°C° 1.3 mm 4 mps 729 mmHg 91%
    13:00 +24°C° 0 mm 3 mps 728 mmHg 84%
    14:00 +25°C° 0 mm 2 mps 728 mmHg 78%
    15:00 +27°C° 0 mm 1 mps 727 mmHg 72%
    16:00 +26°C° 0 mm 1 mps 727 mmHg 73%
    17:00 +26°C° 0 mm 1 mps 727 mmHg 74%
    18:00 +24°C° 0 mm 0 mps 727 mmHg 76%
    19:00 +25°C° 0 mm 1 mps 727 mmHg 79%
    20:00 +24°C° 0 mm 1 mps 728 mmHg 82%
    21:00 +24°C° 0 mm 1 mps 728 mmHg 85%
    22:00 +23°C° 0 mm 1 mps 728 mmHg 86%
    23:00 +23°C° 0 mm 1 mps 728 mmHg 88%

    23 June, Sunday

    Time Temperature Precipitation Wind Pressure Humidity
    00:00 +23°C° 0 mm 1 mps 728 mmHg 89%
    01:00 +23°C° 0 mm 1 mps 728 mmHg 91%
    02:00 +23°C° 0 mm 1 mps 728 mmHg 92%
    03:00 +22°C° 0 mm 1 mps 728 mmHg 94%
    04:00 +23°C° 0 mm 1 mps 728 mmHg 93%
    05:00 +23°C° 0 mm 1 mps 728 mmHg 93%
    06:00 +23°C° 0 mm 1 mps 729 mmHg 93%
    07:00 +25°C° 0 mm 2 mps 729 mmHg 87%
    08:00 +26°C° 0 mm 2 mps 729 mmHg 82%
    09:00 +27°C° 0 mm 3 mps 730 mmHg 76%
    10:00 +29°C° 0 mm 3 mps 729 mmHg 70%
    11:00 +30°C° 0 mm 3 mps 729 mmHg 65%
    12:00 +33°C° 0 mm 3 mps 728 mmHg 59%
    13:00 +33°C° 0 mm 3 mps 728 mmHg 57%
    14:00 +34°C° 0 mm 3 mps 727 mmHg 56%
    15:00 +34°C° 0 mm 3 mps 727 mmHg 54%
    16:00 +33°C° 0 mm 3 mps 727 mmHg 60%
    17:00 +31°C° 0 mm 2 mps 727 mmHg 66%
    18:00 +29°C° 0 mm 2 mps 727 mmHg 72%
    19:00 +28°C° 0 mm 2 mps 727 mmHg 74%
    20:00 +28°C° 0 mm 2 mps 728 mmHg 77%
    21:00 +27°C° 0 mm 3 mps 729 mmHg 80%
    22:00 +26°C° 0 mm 3 mps 729 mmHg 83%
    23:00 +26°C° 0 mm 3 mps 729 mmHg 86%
    Show more